Meteo Giornale » Osservazioni meteo Taiwan » Sungshan-Taipei
ore: 09:30 - Osservazioni Meteo Sungshan-Taipei
Lat. 25° 4' N Lon. 121° 33' E Alt. 6 metri s.l.m.
31 °C
Molto Nuvoloso
Temp. 24 Ore
27 °C
34 °C
Est
20.3 Km/h
Dew point 24 °C
Umidità 66 %
Visibilità 10 Km
Il sole sorge alle ore 05:34
Il sole tramonta alle ore 18:13
| Data e Ora | Cielo e Fenomeni | T °C | DP °C | Um. % | Pres. hPa | Vis. km | Vento km/h | |
|---|---|---|---|---|---|---|---|---|
| Oggi h: 09:30 | Molto Nuvoloso | 31 | 24 | 66 | 1002 | 10 | E 20.3 | |
| Oggi h: 09:00 | Molto Nuvoloso | 31 | 24 | 66 | 1002 | 10 | E 22.2 | |
| Oggi h: 08:30 | Molto Nuvoloso | 31 | 24 | 66 | 1002 | 10 | E 18.5 | |
| Oggi h: 08:00 | Molto Nuvoloso | 30 | 24 | 70 | 1002 | 10 | E 16.7 | |
| Oggi h: 07:30 | Pioggia nelle vicinanze | 29 | 24 | 74 | 1002 | 10 | E 16.7 | |
| Oggi h: 07:00 | Pioggia nelle vicinanze | 28 | 24 | 78 | 1002 | 10 | E 18.5 | |
| Oggi h: 06:54 | Pioggia nelle vicinanze | 28 | 24 | 78 | 1002 | 10 | E 18.5 | |
| Oggi h: 06:30 | Pioggia | 28 | 24 | 78 | 1002 | 10 | E 18.5 | |
| Oggi h: 06:12 | Pioggia | 28 | 24 | 78 | 1001 | 10 | E 18.5 | |
| Oggi h: 06:00 | Pioggia nelle vicinanze | 28 | 24 | 78 | 1001 | 10 | E 16.7 | |
| Oggi h: 05:00 | Molto Nuvoloso | 27 | 24 | 83 | 1001 | 10 | E 14.8 | |
| Oggi h: 04:00 | Molto Nuvoloso | 28 | 24 | 78 | 1001 | 10 | E/SE 11.1 | |
| Oggi h: 03:56 | Molto Nuvoloso | 28 | 24 | 78 | 1001 | 10 | E/SE 11.1 | |
| Oggi h: 03:00 | Pioggia | 28 | 24 | 78 | 1001 | 10 | E 11.1 | |
| Oggi h: 02:00 | Pioggia | 28 | 24 | 78 | 1002 | 10 | E 11.1 | |
| Oggi h: 01:00 | Pioggia | 29 | 23 | 70 | 1002 | 10 | E/SE 16.7 | |
| Oggi h: 00:58 | Pioggia | 29 | 23 | 70 | 1002 | 10 | E/SE 16.7 | |
| Oggi h: 00:00 | Molto Nuvoloso | 29 | 23 | 70 | 1002 | 10 | E/SE 16.7 | |
| Ieri h: 23:30 | Molto Nuvoloso | 29 | 23 | 70 | 1002 | 10 | SE 11.1 | |
| Ieri h: 23:00 | Molto Nuvoloso | 29 | 23 | 70 | 1002 | 10 | E 7.4 | |
| Ieri h: 22:30 | Molto Nuvoloso | 28 | 24 | 78 | 1002 | 10 | E 11.1 | |
| Ieri h: 22:00 | Molto Nuvoloso | 28 | 23 | 74 | 1002 | 10 | E/SE 11.1 | |
| Ieri h: 21:30 | Molto Nuvoloso | 28 | 24 | 78 | 1002 | 10 | E 11.1 | |
| Ieri h: 21:00 | Molto Nuvoloso | 28 | 23 | 74 | 1002 | 10 | E 14.8 | |
| Ieri h: 20:30 | Molto Nuvoloso | 28 | 23 | 74 | 1002 | 10 | E 13 | |
| Ieri h: 20:00 | Molto Nuvoloso | 28 | 23 | 74 | 1001 | 10 | E 18.5 | |
| Ieri h: 19:30 | Molto Nuvoloso | 29 | 23 | 70 | 1001 | 10 | E 22.2 | |
| Ieri h: 19:00 | Molto Nuvoloso | 29 | 23 | 70 | 1000 | 10 | E 27.8 | |
| Ieri h: 18:48 | Molto Nuvoloso | 29 | 23 | 70 | 1000 | 10 | E 27.8 | |
| Ieri h: 18:30 | Molto Nuvoloso | 29 | 23 | 70 | 1000 | 10 | E 29.6 | |
| Ieri h: 18:00 | Molto Nuvoloso | 30 | 23 | 66 | 1000 | 10 | SE 29.6 | |
| Ieri h: 17:30 | Molto Nuvoloso | 30 | 23 | 66 | 1000 | 10 | E/SE 38.8 | |
| Ieri h: 17:00 | Molto Nuvoloso | 31 | 22 | 58 | 1000 | 10 | E/SE 37 | |
| Ieri h: 16:30 | Molto Nuvoloso | 31 | 22 | 58 | 1000 | 10 | SE 35.2 | |
| Ieri h: 16:00 | Molto Nuvoloso | 32 | 22 | 55 | 1000 | 10 | SE 38.8 | |
| Ieri h: 15:30 | Nuvoloso | 33 | 23 | 55 | 999 | 10 | E/SE 42.6 | |
| Ieri h: 15:00 | Nuvoloso | 33 | 23 | 55 | 999 | 10 | E/SE 38.8 | |
| Ieri h: 14:30 | Nuvoloso | 34 | 23 | 52 | 999 | 10 | E/SE 42.6 | |
| Ieri h: 14:00 | Nuvoloso | 34 | 23 | 52 | 999 | 10 | E/SE 38.8 | |
| Ieri h: 13:30 | Nuvoloso | 34 | 22 | 49 | 999 | 10 | E/SE 44.4 | |
| Ieri h: 13:00 | Nuvoloso | 34 | 23 | 52 | 999 | 10 | E/SE 38.8 | |
| Ieri h: 12:30 | Nuvoloso | 34 | 23 | 52 | 999 | 10 | E/SE 38.8 | |
| Ieri h: 12:00 | Nuvoloso | 34 | 23 | 52 | 1000 | 10 | SE 38.8 | |
| Ieri h: 11:30 | Poco Nuvoloso | 33 | 23 | 55 | 1000 | 10 | E/SE 40.7 | |
| Ieri h: 11:00 | Poco Nuvoloso | 34 | 23 | 52 | 1000 | 10 | E/SE 37 | |



